Location: Bratislava
(48.1500°N, 17.1170°E)
Time: 09:24:48
(UTC+02:00)

Envisat - Visible Passes

Search period start: 26 March 2017 00:00
Search period end: 05 April 2017 01:00
Orbit: 764 x 766 km, 98.2° (Epoch: 24 March)

Date Brightness Start Highest point End Pass type
(mag) Time Alt. Az. Time Alt. Az. Time Alt. Az.
26 Mar 3.2 21:02:12 13° S 21:06:47 72° WSW 21:11:53 10° NNW visible
27 Mar 3.1 20:25:10 10° SSE 20:30:07 57° ENE 20:35:07 10° N visible
27 Mar 5.2 22:05:40 10° SW 22:09:30 21° W 22:13:22 10° NW visible
28 Mar 3.9 19:49:19 10° ESE 19:53:39 29° ENE 19:58:01 10° N visible
28 Mar 4.0 21:27:56 11° SSW 21:32:30 43° W 21:37:22 10° NNW visible
29 Mar 3.0 20:50:41 10° SSE 20:55:42 88° WSW 21:00:50 10° NNW visible
29 Mar 5.7 22:33:16 10° WSW 22:35:28 13° W 22:37:42 10° WNW visible
30 Mar 3.3 20:14:17 10° SE 20:19:07 46° ENE 20:23:58 10° N visible
30 Mar 4.9 21:54:06 10° SSW 21:58:20 26° W 22:02:36 10° NW visible
31 Mar 3.7 21:16:26 10° S 21:21:23 53° W 21:26:23 10° NNW visible
01 Apr 2.9 20:39:35 10° SSE 20:44:39 76° ENE 20:49:45 10° N visible
01 Apr 5.5 22:21:12 10° SW 22:24:15 16° W 22:27:21 10° NW visible
02 Apr 3.6 20:03:27 10° SE 20:08:07 38° ENE 20:12:47 10° N visible
02 Apr 4.6 21:42:39 10° SSW 21:47:10 32° W 21:51:44 10° NNW visible
03 Apr 3.3 21:05:15 10° S 21:10:18 66° WSW 21:15:23 10° NNW visible
04 Apr 3.1 20:28:37 10° SSE 20:33:37 62° ENE 20:38:38 10° N visible
04 Apr 5.3 22:09:24 10° SW 22:13:04 20° W 22:16:44 10° NW visible
